Regional Weather Roundup
Issued by NWS Wakefield, VA

Home | Current Version | Previous Version | Text Only | Print | Product List | Glossary Off
Versions: 1 2 3 4 5 6 7 8 9 10 11 12 13 14 15 16 17 18 19 20 21 22 23 24 25 26 27

000
ASUS41 KAKQ 241215
RWRAKQ

REGIONAL WEATHER ROUNDUP
NATIONAL WEATHER SERVICE WAKEFIELD VA
700 AM EST SAT FEB 24 2018

Note: "fair" indicates few or no clouds below 12,000 feet with no
significant weather and/or obstructions to visibility. * = Denotes
station may not report precipitation (e.g., rain,snow,etc.),
thunder or fog.

VAZ042-051-052>054-056-241300-
NORTHERN VIRGINIA

CITY           SKY/WX    TMP DP  RH WIND       PRES   REMARKS
WASH NATIONAL  FOG       50  50 100 E5        30.15S VSB 1/8
DULLES         FOG       48  48 100 CALM      30.15S VSB 1/2
FORT BELVOIR   FOG       49  48  99 CALM      30.15F VSB 1/8
QUANTICO       FOG       50  50 100 E6        30.15F VSB 3/4
FREDERICKSBRG* CLOUDY    49  49 100 CALM      30.14F FOG
STAFFORD*      CLOUDY    51  51 100 E3        30.18F FOG
WARRENTON      FOG       50  48  91 CALM      30.14R VSB<1/4
CULPEPER*      FOG       50  48  94 CALM      30.15S VSB 1/4
MANASSAS*      FOG       49  48  97 CALM      30.15S VSB 1/4
LEESBURG*      FOG       43  43 100 CALM      30.15R VSB 3/4
WINCHESTER     CLOUDY    41  41 100 CALM      30.15R FOG
FRONT ROYAL*   CLOUDY    41  41 100 CALM      30.13R
LURAY*         CLOUDY    50  48  93 SE5       30.12S
$$

VAZ048-049-060>072-079>083-241300-
CENTRAL AND SOUTH CENTRAL VIRGINIA

CITY           SKY/WX    TMP DP  RH WIND       PRES   REMARKS
RICHMOND       FOG       53  53 100 S6        30.16F VSB 1/2
CHESTERFIELD*  CLOUDY    54  54 100 SW7       30.16F FOG
PETERSBURG*    FOG       54  53  96 S6        30.18S VSB 3/4
HANOVER        FAIR      50  50 100 S5        30.16F FOG
TAPPAHANNOCK*  FOG       55  55 100 SW6       30.17S VSB 1
QUINTON*       FOG       54  54 100 S12G17    30.16S VSB 1
CHARLOTTSVILLE FOG       49  48  97 CALM      30.13R VSB 1/2
GORDONSVILLE*  FOG       51  51 100 SW5       30.13R VSB 1
ORANGE*        CLOUDY    50  50 100 CALM      30.14R FOG
LOUISA*        FAIR      52  51  97 W5        30.18R FOG
BUMPASS*       FAIR      51  49  95 SW9       30.13F
FARMVILLE*     FAIR     N/A N/A N/A S5        30.15S FOG
CREWE*         CLOUDY    51  51 100 S5        30.16S VSB 1
FORT PICKETT*  CLOUDY    50  50 100 S6        30.17F VSB<1/4
CHASE CITY*    CLOUDY    47  47 100 CALM      30.18S VSB 1/2
CLARKSVILLE*   CLOUDY    46  46 100 CALM      30.18F VSB<1/4
SOUTH HILL*    CLOUDY    51  51 100 S3        30.24F VSB<1/4
LAWRENCEVILLE* CLOUDY    55  54  97 SW3       30.18S VSB<1/4
EMPORIA*       CLOUDY    55  55 100 SE3       30.20F FOG
$$

VAZ088>098-241300-
SOUTHEAST VIRGINIA

CITY           SKY/WX    TMP DP  RH WIND       PRES   REMARKS
NORFOLK        CLOUDY    62  61  96 SW13      30.19F
VIRGINIA BEACH CLOUDY    61  59  93 SW9       30.19F
NORFOLK NAVAL  CLOUDY    62  60  93 SW9       30.20F FOG
WEST POINT*    CLOUDY    56  55  97 SW3       30.19S
SALUDA*        CLOUDY    56  56 100 S5        30.17F
NEWPORT NEWS   CLOUDY    60  59  96 SW8       30.18F
LANGLEY AFB    CLOUDY    60  60 100 SW10      30.19S FOG
FORT EUSTIS    CLOUDY    59  59 100 SW5       30.16S
WILLIAMSBURG*  CLOUDY    61  59  94 SW5       30.19F
HR EXEC AP*    CLOUDY    62  61  96 SW7       30.21S
FRANKLIN*      CLOUDY    61  60  97 SW7       30.21S
US460-WAKEFLD  FOG       58  58 100 SW6       30.19S VSB 1/2
$$

VAZ020-022-025-037-045-241300-
WEST CENTRAL AND SOUTHWEST VIRGINIA

CITY           SKY/WX    TMP DP  RH WIND       PRES   REMARKS
STAUNTON*      MOCLDY    48  48  97 CALM      30.15S
WAYNESBORO*    FAIR      51  51  99 CALM      30.14S
HOT SPRINGS VA CLOUDY    57  50  76 SW12      30.20S
LYNCHBURG      FOG       48  48 100 CALM      30.16R VSB 1
DANVILLE       FAIR      42  42 100 CALM      30.18F FOG
SOUTH BOSTON*  CLOUDY    44  43  95 CALM      30.18F VSB<1/4
MARTINSVILLE   FAIR      45  44  97 S3        30.21R FOG
ROANOKE        MOCLDY    47  46  97 CALM      30.18F
BLACKSBURG     FAIR      53  53 100 CALM      30.22R FOG
DUBLIN*        MOCLDY    54  54  99 W3        30.20R
MARION*        CLOUDY    53  50  90 CALM      30.22F
HILLSVILLE*    CLOUDY    55  53  94 CALM      30.20S
RICHLANDS*     CLOUDY    61  49  66 CALM      30.18S
WISE*          LGT RAIN  59  54  82 S5        30.18S
ABINGDON*      CLOUDY    56  54  92 CALM      30.17F
$$

MDZ021>025-VAZ099-100-241300-
SOUTHERN MARYLAND AND THE DELMARVA PENINSULA

CITY           SKY/WX    TMP DP  RH WIND       PRES   REMARKS
PATUXENT RIVER FOG       45  45 100 SE5       30.17S VSB 1/2
BAY BRIDGE APT FOG       45  45 100 CALM      30.17F VSB<1/4
LEONARDTOWN    CLOUDY    50  48  93 CALM      30.18R VSB 1/4
DOVER          FOG       48  46  93 NE3       30.19S VSB 1/2
GEORGETOWN     FOG       50  49  96 S3        30.19S VSB 1/4
EASTON         FOG       50  48  93 CALM      30.21S VSB 1/2
CAMBRIDGE      FOG       48  48 100 SE6       30.18R VSB 1/4
SALISBURY      FOG       49  49 100 E3        30.18F VSB 1/4
OCEAN CITY     FOG       44  44 100 S3        30.20S VSB 1/2
WALLOPS ISLAND FOG       48  47  96 S5        30.20R VSB 1/4
ACCOMACK*      FOG       50  49  99 CALM      30.19S VSB 1/4
$$

NCZ012>017-030>032-241300-
NORTH CENTRAL AND EASTERN NORTH CAROLINA

CITY           SKY/WX    TMP DP  RH WIND       PRES   REMARKS
ROANOKE RAPIDS CLOUDY    61  61 100 CALM      30.21S
RALEIGH        CLOUDY    60  60 100 SW9       30.22S FOG
ELIZABETH CITY CLOUDY    62  62 100 SW8       30.22F
AHOSKIE*       CLOUDY    61  61 100 SW3       30.22S
EDENTON*       CLOUDY    63  63 100 SW5       30.24S
CURRITUCK*     CLOUDY    56  55  99 SW6       30.23S FOG
KILL DEVIL HLS FOG      N/A N/A N/A CALM      30.22F VSB 1
MANTEO         FOG       59  59 100 W3        30.24F VSB 1/2
CAPE HATTERAS  FAIR      63  62  97 SW7       30.25S
TARBORO*       NOT AVBL
GOLDSBORO      CLOUDY    63  61  94 SW7       30.22F
WASHINGTON     CLOUDY    62  61  97 SW7       30.24S
GREENVILLE     CLOUDY    63  63 100 SW7       30.24S
NEW BERN       FOG       58  58 100 W5        30.26S VSB 1/4
WILMINGTON     FAIR      63  62  97 S6        30.26S
$$

VAZ048-241300-
ELSEWHERE

CITY           SKY/WX    TMP DP  RH WIND       PRES   REMARKS
HARRISBURG PA  FOG       44  42  93 CALM      30.17S VSB 1/2
BALTIMORE      FOG       45  45 100 E5        30.16S VSB<1/4
ANNAPOLIS      FOG       47  47 100 CALM      30.16F VSB 1/4
ANDREWS AFB    FOG       48  48 100 E3        30.15R VSB 1/8
PHILADELPHIA   CLOUDY    44  43  96 S3        30.19F FOG
HENDERSON NC   FOG       55  54  98 S6        30.20S VSB 1/2
GREENSBORO     FAIR      50  50 100 SW8       30.19S
ROCKY MOUNT    CLOUDY    62  60  93 S8        30.22F
$$

VAZ100-241300-
MARINE

STATION/POSITION TIME  TEMP    WIND        PRES    WAVE   SWELL
                       AIR SEA DIR/SP/G            HT/PER HT/PER
                 (UTC) (F)     (DEG/KT/KT) (MB)    (FT/S) (FT/S)
BRANDYWINE LGT   1142   47     170/  2/  4 1023.0R
CAPE MAY NJ      1148   45 43  110/  2/  2 1022.3R
LEWES DE         1142   49 43  200/  2/  3 1022.3R
15NM E FENWICK I 1150   44 43  190/  6/  8 1023.2R   3/ 7   3/ 7
OCEAN-CITY-INLET 1142   43 42  200/  3/  5 1023.2R
WACHAPREAGUE VA  1142   48 51  230/  3/  5 1022.5S
THOMAS POINT MD  1200   44 42     CALM       N/A
GOOSES REEF MD   1200   43 42  150/  6/  8 1025.3    1/ 2
COVE POINT MD    1142   44     190/  9/  9 1022.3S
SOLOMONS ISLAND  1142   45 43  120/  3/  4 1021.3F
BISHOPS HEAD MD  1142   46 48  140/  7/  9 1022.0F
PINEY POINT MD   1142          140/  5/  5   N/A
POTOMAC MD       1200   44 43  350/  8/  8 1022.6    1
CAMBRIDGE MD     1142   49 47              1022.5R
LEWISETTA VA     1142   47 48  130/  5/  6 1021.3F
RAPPAHANNOCK LGT 1142          170/  9/  9 1022.8R
YORK RVR RNG VA  1142   57     250/  9/ 10 1022.7F
YORKTOWN VA      1142   59 48  220/  8/ 12 1021.7F
DOMINION TERM VA 1142   57     210/ 11/ 12 1022.5F
KIPTOPEKE VA     1142      47  200/  7/ 10   N/A
CAPE HENRY VA    1142   61     220/  9/ 15   N/A
WILLOUBY STN VA  1142   59     220/ 14/ 15 1022.2F
S CRANEY ISL VA  1142   61     220/  6/  9 1022.4F
CAPE HENRY BUOY  1200      44                N/A     3/ 9   2/11
CAPE CHARLES BUO 1151      44                N/A     3/10   2/11
64NM E OF VA BCH 1150   51 49  240/ 10/ 10 1023.8F   4/ 9   3/ 9
DUCK PIER NC     1142   59 45  230/  8/ 10 1023.2F
44100 DUCK FRF   1145      46                N/A     4/ 8   2/11
44056 DUCK FRF   1200      46                N/A     3/ 9   2/11
OREGON INLET NC  1142   55 53  220/  6/  6 1023.9R
HATTERAS NC      1142   63 61  220/  5/  7 1024.0F
DIAMOND SHLS NC  1150   71 73  250/ 16/ 17 1024.4S   5/ 9   3/ 9
CAPE LOOKOUT NC  1200          250/  9/ 11 1024.8S
$$




USA.gov is the U.S. government's official web portal to all federal, state and local government web resources and services.